Group_ship,Cruise,JD_GMT,Date_DDMMYYYY,TIME_HH:MM:SS,Lat_dec_degree,Long_dec_degree,xCO2eq_ppm,xCO2a_ppm,Pres_Equi_hPa,Pres_sealevel_hPa,EqTemp_C,SST(TSG)_C,Sal(TSG)_Permil,Water_flow_l/min,Gasflow_IR_ml/min,Temp_IR_C,Pres_IR_hPa,Ship_heading_true_degree,Ship_speed_knot,Wind_dir_rel_degree,Wind_speed_rel_m/s,fCO2W@SST_uatm,Qcflag_water,fCO2a_uatm,Qcflag_air,dfCO2_uatm,Fluoro_ug/l,Wind_speed_true_m/s,Wind_dir_true_degree,Air_temp_C,Oxygen
AOML_Explorer,Ex0545E,318.027,14112005,0:39:31,26.009,-79.574,374.08,-9.00,1021.31,1017.68,26.82,27.06,36.172,0.929,86.288,31.450,1021.314,58.000,22.300,0.000,23.162,366.30,2,-9.00,9,-9.00,0.20,11.77,67.68,25.9,227.66
AOML_Explorer,Ex0545E,318.029,14112005,0:42:04,26.017,-79.559,374.29,-9.00,1021.16,1017.82,26.80,27.05,36.153,0.943,86.620,31.452,1021.164,58.300,22.300,3.000,21.103,366.56,2,-9.00,9,-9.00,0.23,9.84,74.62,25.94,227.65
AOML_Explorer,Ex0545E,318.031,14112005,0:44:37,26.026,-79.544,374.09,-9.00,1021.15,1017.83,26.78,27.08,36.167,0.959,86.346,31.456,1021.151,58.500,22.300,4.000,22.132,367.08,2,-9.00,9,-9.00,0.15,10.93,76.48,25.97,227.54
AOML_Explorer,Ex0545E,318.033,14112005,0:47:10,26.034,-79.529,373.79,-9.00,1021.14,1017.69,26.79,27.17,36.231,0.948,86.542,31.459,1021.140,58.600,22.300,359.000,22.647,367.94,2,-9.00,9,-9.00,0.14,11.21,65.80,25.9,227.54
AOML_Explorer,Ex0545E,318.035,14112005,0:49:43,26.043,-79.515,373.68,-9.00,1021.10,1017.59,26.85,27.17,36.250,0.953,85.685,31.463,1021.104,58.100,22.300,2.000,21.103,367.00,2,-9.00,9,-9.00,0.16,9.80,72.91,25.92,227.01
AOML_Explorer,Ex0545E,318.036,14112005,0:52:16,26.051,-79.500,373.97,-9.00,1021.20,1018.26,26.88,27.19,36.250,0.948,85.711,31.469,1021.195,58.600,22.200,7.000,21.617,367.07,2,-9.00,9,-9.00,0.16,10.68,82.83,25.92,226.87
AOML_Explorer,Ex0545E,318.038,14112005,0:54:49,26.059,-79.485,375.24,-9.00,1021.09,1017.64,26.89,27.19,36.250,0.944,86.245,31.477,1021.090,58.700,22.000,4.000,22.647,368.16,2,-9.00,9,-9.00,0.14,11.55,74.82,25.83,227.03
AOML_Explorer,Ex0545E,318.040,14112005,0:57:22,26.067,-79.470,375.95,-9.00,1021.37,1018.02,26.90,27.17,36.254,0.985,86.671,31.480,1021.366,58.900,22.100,3.000,22.647,368.54,2,-9.00,9,-9.00,0.12,11.47,74.09,25.86,227.24
AOML_Explorer,Ex0545E,318.042,14112005,0:59:55,26.075,-79.455,375.50,-9.00,1021.14,1017.68,26.90,27.14,36.264,0.970,86.711,31.482,1021.144,59.000,22.000,358.000,22.132,367.57,2,-9.00,9,-9.00,0.12,10.82,62.37,25.78,227.49
AOML_Explorer,Ex0545E,318.066,14112005,1:34:25,26.180,-79.255,376.96,-9.00,1021.71,1018.40,26.81,27.05,36.248,1.029,86.258,31.541,1021.709,62.500,21.500,359.000,21.103,369.19,2,-9.00,9,-9.00,0.23,10.04,61.81,25.38,226.15
AOML_Explorer,Ex0545E,318.067,14112005,1:36:58,26.187,-79.240,377.72,-9.00,1021.58,1018.36,26.79,27.01,36.250,0.996,85.863,31.536,1021.584,62.300,21.400,0.000,21.103,369.69,2,-9.00,9,-9.00,0.23,10.09,63.40,25.41,226.85
AOML_Explorer,Ex0545E,318.069,14112005,1:39:31,26.194,-79.225,378.51,-9.00,1021.74,1018.17,26.77,26.90,36.282,0.991,85.810,31.535,1021.737,61.000,21.200,3.000,21.617,369.48,2,-9.00,9,-9.00,0.25,10.78,70.62,25.43,226.92
AOML_Explorer,Ex0545E,318.071,14112005,1:42:04,26.201,-79.210,377.94,-9.00,1021.64,1018.33,26.74,26.92,36.256,1.018,86.437,31.529,1021.643,65.400,21.000,354.000,19.559,369.50,2,-9.00,9,-9.00,0.25,8.82,55.85,25.34,226.57
AOML_Explorer,Ex0545E,318.073,14112005,1:44:37,26.206,-79.195,377.81,-9.00,1021.66,1018.06,26.66,26.94,36.247,1.030,85.891,31.526,1021.663,71.600,20.900,351.000,22.132,370.76,2,-9.00,9,-9.00,0.22,11.56,56.79,25.41,226.36
AOML_Explorer,Ex0545E,318.074,14112005,1:47:10,26.210,-79.179,378.01,-9.00,1021.72,1018.08,26.67,26.96,36.242,1.036,86.383,31.518,1021.722,79.200,20.800,343.000,21.617,371.06,2,-9.00,9,-9.00,0.23,11.71,48.51,25.44,226.77
AOML_Explorer,Ex0545E,318.076,14112005,1:49:43,26.212,-79.162,377.93,-9.00,1021.73,1018.13,26.68,26.95,36.241,1.045,86.679,31.511,1021.729,86.900,20.800,346.000,20.073,370.80,2,-9.00,9,-9.00,0.21,9.92,59.07,25.41,227.05
AOML_Explorer,Ex0545E,318.078,14112005,1:52:16,26.211,-79.146,377.59,-9.00,1021.58,1018.06,26.69,26.95,36.242,1.025,86.329,31.508,1021.581,95.500,20.900,342.000,20.073,370.26,2,-9.00,9,-9.00,0.20,10.37,59.10,25.55,227.21
AOML_Explorer,Ex0545E,318.080,14112005,1:54:49,26.209,-79.130,376.27,-9.00,1021.63,1018.22,26.69,26.95,36.240,1.057,122.150,31.479,1021.631,101.100,20.900,344.000,20.588,369.02,2,-9.00,9,-9.00,0.20,10.77,67.02,25.56,227.39
AOML_Explorer,Ex0545E,318.082,14112005,1:57:22,26.206,-79.113,374.75,-9.00,1021.56,1018.02,26.69,26.95,36.237,1.284,87.198,31.360,1021.560,101.300,21.000,336.000,21.617,367.44,2,-9.00,9,-9.00,0.20,12.75,54.24,25.6,227.50
AOML_Explorer,Ex0545E,318.083,14112005,1:59:55,26.203,-79.097,375.68,-9.00,1021.57,1017.80,26.70,26.96,36.239,1.735,87.029,31.173,1021.568,101.800,21.100,335.000,22.132,368.37,2,-9.00,9,-9.00,0.20,13.41,53.07,25.59,227.44
AOML_Explorer,Ex0545E,318.104,14112005,2:29:19,26.179,-78.896,376.98,-9.00,1021.53,1017.84,26.59,26.86,36.347,2.042,86.462,31.067,1021.528,93.700,23.000,349.000,20.073,369.88,2,-9.00,9,-9.00,0.16,8.81,66.22,25.71,227.53
AOML_Explorer,Ex0545E,318.105,14112005,2:31:52,26.178,-78.878,377.48,-9.00,1021.53,1018.22,26.61,26.87,36.351,2.023,86.596,31.080,1021.528,93.300,23.000,348.000,20.588,370.15,2,-9.00,9,-9.00,0.17,9.38,65.09,25.67,227.75
AOML_Explorer,Ex0545E,318.107,14112005,2:34:25,26.177,-78.860,377.63,-9.00,1021.60,1018.19,26.62,26.87,36.350,2.050,86.360,31.091,1021.599,93.400,23.000,350.000,20.588,370.12,2,-9.00,9,-9.00,0.17,9.22,68.98,25.65,227.77
AOML_Explorer,Ex0545E,318.109,14112005,2:36:58,26.176,-78.842,377.54,-9.00,1021.51,1018.17,26.63,26.87,36.349,2.040,86.143,31.104,1021.511,93.000,22.900,354.000,20.588,369.89,2,-9.00,9,-9.00,0.14,8.96,78.88,25.64,227.82
AOML_Explorer,Ex0545E,318.111,14112005,2:39:31,26.176,-78.824,377.43,-9.00,1021.58,1018.23,26.63,26.91,36.312,2.064,86.317,31.111,1021.579,93.100,22.900,353.000,20.073,370.32,2,-9.00,9,-9.00,0.13,8.50,76.11,25.61,228.38
AOML_Explorer,Ex0545E,318.113,14112005,2:42:04,26.175,-78.806,376.68,-9.00,1021.43,1018.12,26.65,26.92,36.304,2.028,86.179,31.123,1021.431,93.300,22.900,353.000,21.103,369.40,2,-9.00,9,-9.00,0.14,9.53,76.94,25.59,228.33
AOML_Explorer,Ex0545E,318.114,14112005,2:44:37,26.173,-78.788,375.27,-9.00,1021.42,1017.68,26.67,26.93,36.295,2.081,86.439,31.131,1021.415,95.500,22.900,343.000,21.103,367.94,2,-9.00,9,-9.00,0.16,10.45,58.61,25.56,228.22
AOML_Explorer,Ex0545E,318.116,14112005,2:47:10,26.171,-78.770,374.97,-9.00,1021.56,1017.26,26.68,26.95,36.285,2.042,86.305,31.142,1021.558,101.600,22.900,337.000,25.735,367.80,2,-9.00,9,-9.00,0.17,15.73,59.72,25.39,227.92
AOML_Explorer,Ex0545E,318.118,14112005,2:49:43,26.167,-78.752,374.84,-9.00,1021.54,1017.40,26.69,26.95,36.275,2.033,86.148,31.151,1021.545,103.700,22.800,340.000,25.220,367.58,2,-9.00,9,-9.00,0.19,14.87,66.32,25.2,227.55
AOML_Explorer,Ex0545E,318.120,14112005,2:52:16,26.163,-78.735,374.98,-9.00,1021.36,1017.68,26.70,26.94,36.275,2.063,85.820,31.158,1021.363,105.500,22.800,339.000,26.250,367.39,2,-9.00,9,-9.00,0.20,16.09,66.20,25.01,227.22
AOML_Explorer,Ex0545E,318.121,14112005,2:54:49,26.159,-78.718,375.69,-9.00,1021.70,1017.34,26.70,26.90,36.297,2.063,85.788,31.167,1021.695,106.200,22.700,333.000,25.220,367.55,2,-9.00,9,-9.00,0.15,16.05,56.37,24.71,227.46
AOML_Explorer,Ex0545E,318.123,14112005,2:57:22,26.154,-78.701,376.62,-9.00,1021.48,1017.57,26.69,26.88,36.297,2.059,86.547,31.174,1021.483,107.400,22.700,330.000,23.676,368.28,2,-9.00,9,-9.00,0.14,15.16,50.54,24.88,227.97
AOML_Explorer,Ex0545E,318.125,14112005,2:59:55,26.149,-78.684,376.32,-9.00,1021.51,1017.67,26.65,26.81,36.327,2.079,85.876,31.178,1021.510,107.600,22.600,329.000,24.191,367.68,2,-9.00,9,-9.00,0.15,15.88,49.98,24.9,228.24
AOML_Explorer,Ex0545E,318.144,14112005,3:26:46,26.098,-78.505,373.76,-9.00,1021.62,1018.46,26.58,26.82,36.358,2.089,85.861,31.259,1021.622,107.700,22.800,344.000,18.015,366.31,2,-9.00,9,-9.00,0.16,7.61,63.92,24.67,228.24
AOML_Explorer,Ex0545E,318.145,14112005,3:29:19,26.093,-78.488,373.83,-9.00,1021.53,1017.85,26.58,26.82,36.363,2.055,85.835,31.256,1021.527,107.500,22.700,1.000,21.617,366.30,2,-9.00,9,-9.00,0.16,9.93,108.74,24.78,228.34
AOML_Explorer,Ex0545E,318.147,14112005,3:31:52,26.088,-78.471,373.82,-9.00,1021.60,1018.36,26.56,26.83,36.367,2.067,86.094,31.253,1021.605,107.000,22.800,0.000,20.588,366.70,2,-9.00,9,-9.00,0.15,8.85,106.12,24.77,228.28
AOML_Explorer,Ex0545E,318.149,14112005,3:34:25,26.083,-78.454,373.90,-9.00,1021.38,1017.93,26.57,26.83,36.360,2.077,86.019,31.251,1021.382,106.800,22.800,356.000,21.617,366.65,2,-9.00,9,-9.00,0.16,9.95,97.41,24.72,228.32
AOML_Explorer,Ex0545E,318.151,14112005,3:36:58,26.079,-78.436,374.06,-9.00,1021.39,1018.25,26.58,26.83,36.361,2.064,85.785,31.248,1021.390,107.000,22.800,349.000,19.044,366.57,2,-9.00,9,-9.00,0.16,7.90,78.18,24.42,228.41
AOML_Explorer,Ex0545E,318.152,14112005,3:39:31,26.074,-78.419,374.22,-9.00,1021.41,1018.24,26.59,26.83,36.363,2.095,85.473,31.247,1021.409,106.900,23.000,350.000,19.044,366.74,2,-9.00,9,-9.00,0.17,7.73,79.73,24.38,228.42
AOML_Explorer,Ex0545E,318.154,14112005,3:42:04,26.069,-78.402,374.30,-9.00,1021.25,1018.31,26.59,26.83,36.363,2.071,86.027,31.243,1021.248,107.000,23.000,354.000,18.529,366.74,2,-9.00,9,-9.00,0.16,6.90,89.25,24.86,228.32
AOML_Explorer,Ex0545E,318.156,14112005,3:44:37,26.064,-78.385,374.36,-9.00,1021.25,1017.29,26.59,26.84,36.364,2.059,85.560,31.242,1021.255,107.700,22.900,342.000,23.676,366.79,2,-9.00,9,-9.00,0.16,13.14,71.24,25.48,228.40
AOML_Explorer,Ex0545E,318.158,14112005,3:47:10,26.059,-78.368,374.51,-9.00,1021.34,1017.36,26.59,26.84,36.364,2.081,85.556,31.243,1021.338,107.700,22.900,345.000,25.735,366.98,2,-9.00,9,-9.00,0.15,14.86,78.31,25.76,228.31
AOML_Explorer,Ex0545E,318.160,14112005,3:49:43,26.054,-78.350,374.58,-9.00,1021.20,1017.41,26.59,26.84,36.363,2.057,86.100,31.238,1021.197,108.000,22.900,343.000,23.676,366.98,2,-9.00,9,-9.00,0.15,13.05,72.72,25.81,228.20
AOML_Explorer,Ex0545E,318.161,14112005,3:52:16,26.049,-78.333,374.64,-9.00,1021.12,1017.04,26.60,26.84,36.362,2.072,86.266,31.232,1021.120,108.000,23.000,342.000,25.735,366.99,2,-9.00,9,-9.00,0.17,15.10,73.35,25.86,228.27
AOML_Explorer,Ex0545E,318.163,14112005,3:54:49,26.044,-78.316,374.77,-9.00,1021.23,1016.81,26.59,26.83,36.361,2.023,85.568,31.230,1021.232,108.700,22.900,345.000,26.250,367.03,2,-9.00,9,-9.00,0.16,15.28,80.08,25.85,228.07
AOML_Explorer,Ex0545E,318.165,14112005,3:57:22,26.039,-78.299,375.12,-9.00,1021.19,1017.06,26.59,26.83,36.353,2.045,85.154,31.230,1021.189,109.100,22.900,345.000,25.735,367.45,2,-9.00,9,-9.00,0.18,14.83,79.22,25.83,227.90
AOML_Explorer,Ex0545E,318.167,14112005,3:59:55,26.034,-78.282,375.59,-9.00,1021.19,1017.10,26.59,26.82,36.354,2.060,85.952,31.225,1021.193,109.200,23.000,341.000,25.220,367.82,2,-9.00,9,-9.00,0.20,14.78,71.68,25.83,227.56
AOML_Explorer,Ex0545E,318.176,14112005,4:14:01,25.988,-78.197,373.45,-9.00,1020.65,1016.64,26.56,26.80,36.408,2.095,84.811,31.248,1020.652,128.100,23.100,323.000,25.220,365.72,2,-9.00,9,-9.00,0.15,17.78,63.10,25.67,228.83
AOML_Explorer,Ex0545E,318.178,14112005,4:16:34,25.978,-78.183,373.63,-9.00,1020.80,1016.75,26.57,26.74,36.407,2.055,85.220,31.254,1020.805,127.900,23.100,320.000,24.191,365.09,2,-9.00,9,-9.00,0.15,17.41,57.74,25.63,228.78
AOML_Explorer,Ex0545E,318.180,14112005,4:19:07,25.968,-78.168,373.81,-9.00,1021.00,1016.57,26.54,26.73,36.382,2.036,85.281,31.256,1020.997,124.100,23.000,324.000,25.735,365.41,2,-9.00,9,-9.00,0.15,18.25,60.06,25.62,228.78
AOML_Explorer,Ex0545E,318.182,14112005,4:21:40,25.960,-78.153,373.60,-9.00,1020.78,1016.74,26.50,26.72,36.378,2.064,85.827,31.259,1020.776,118.700,22.900,331.000,25.735,365.59,2,-9.00,9,-9.00,0.18,16.97,64.76,25.49,228.54
AOML_Explorer,Ex0545E,318.183,14112005,4:24:13,25.953,-78.137,373.37,-9.00,1021.13,1017.27,26.49,26.69,36.384,2.082,85.287,31.258,1021.128,112.500,22.900,337.000,22.647,365.37,2,-9.00,9,-9.00,0.18,13.09,63.55,25.38,228.69
AOML_Explorer,Ex0545E,318.185,14112005,4:26:46,25.948,-78.120,373.49,-9.00,1021.05,1017.46,26.45,26.69,36.392,2.046,85.770,31.258,1021.047,104.600,22.900,348.000,23.162,365.91,2,-9.00,9,-9.00,0.14,12.10,76.36,25.64,228.64
AOML_Explorer,Ex0545E,318.187,14112005,4:29:19,25.945,-78.102,373.27,-9.00,1021.00,1016.99,26.45,26.69,36.376,2.054,86.012,31.254,1020.996,97.600,22.900,345.000,24.706,365.73,2,-9.00,9,-9.00,0.15,13.93,65.42,25.53,228.78
AOML_Explorer,Ex0545E,318.189,14112005,4:31:52,25.943,-78.084,373.44,-9.00,1021.06,1017.03,26.46,26.69,36.381,2.068,86.022,31.250,1021.063,92.600,22.900,347.000,24.706,365.71,2,-9.00,9,-9.00,0.14,13.66,64.72,25.42,228.54
AOML_Explorer,Ex0545E,318.191,14112005,4:34:25,25.943,-78.066,373.15,-9.00,1021.03,1017.43,26.46,26.67,36.394,2.055,85.583,31.247,1021.029,91.500,23.000,354.000,23.676,365.12,2,-9.00,9,-9.00,0.17,12.02,77.35,25.5,228.87
AOML_Explorer,Ex0545E,318.192,14112005,4:36:58,25.943,-78.048,373.26,-9.00,1021.11,1017.51,26.45,26.67,36.395,2.051,85.968,31.241,1021.107,91.100,23.100,350.000,22.132,365.35,2,-9.00,9,-9.00,0.15,10.72,67.46,25.54,228.81
AOML_Explorer,Ex0545E,318.194,14112005,4:39:31,25.942,-78.030,373.20,-9.00,1021.03,1017.42,26.44,26.67,36.404,2.047,85.370,31.237,1021.033,90.600,23.100,350.000,22.647,365.54,2,-9.00,9,-9.00,0.13,11.20,68.14,25.41,228.80
AOML_Explorer,Ex0545E,318.196,14112005,4:42:04,25.942,-78.012,373.23,-9.00,1021.14,1017.39,26.44,26.72,36.396,2.055,85.066,31.237,1021.136,91.200,23.000,344.000,23.162,366.25,2,-9.00,9,-9.00,0.12,12.35,57.71,25.36,229.26
AOML_Explorer,Ex0545E,318.198,14112005,4:44:37,25.941,-77.994,373.41,-9.00,1021.32,1017.39,26.46,26.73,36.399,2.042,85.525,31.233,1021.324,95.700,23.100,342.000,22.647,366.31,2,-9.00,9,-9.00,0.16,11.95,59.26,25.28,229.37
AOML_Explorer,Ex0545E,318.199,14112005,4:47:10,25.939,-77.976,372.89,-9.00,1021.10,1017.89,26.49,26.74,36.412,2.042,85.408,31.226,1021.099,97.900,23.000,0.000,21.617,365.49,2,-9.00,9,-9.00,0.14,9.78,96.52,24.73,229.43
AOML_Explorer,Ex0545E,318.201,14112005,4:49:43,25.936,-77.959,372.93,-9.00,1021.31,1018.11,26.50,26.74,36.420,2.056,85.526,31.219,1021.313,102.700,23.200,355.000,19.044,365.39,2,-9.00,9,-9.00,0.14,7.22,89.78,23.87,229.46
AOML_Explorer,Ex0545E,318.203,14112005,4:52:16,25.932,-77.941,373.37,-9.00,1021.21,1017.87,26.51,26.72,36.409,2.065,85.599,31.217,1021.206,104.900,23.200,344.000,18.529,365.53,2,-9.00,9,-9.00,0.14,7.91,61.98,23.48,229.54
AOML_Explorer,Ex0545E,318.205,14112005,4:54:49,25.928,-77.924,373.24,-9.00,1021.24,1018.56,26.49,26.72,36.400,2.048,85.405,31.212,1021.240,104.200,23.100,7.000,16.470,365.48,2,-9.00,9,-9.00,0.16,4.86,127.47,22.33,229.32
AOML_Explorer,Ex0545E,318.207,14112005,4:57:22,25.924,-77.906,373.21,-9.00,1021.16,1018.09,26.49,26.65,36.400,2.060,85.531,31.208,1021.158,105.000,23.200,350.000,16.470,364.63,2,-9.00,9,-9.00,0.19,5.29,67.93,22.75,228.79
AOML_Explorer,Ex0545E,318.208,14112005,4:59:55,25.920,-77.889,373.03,-9.00,1020.93,1016.84,26.47,26.68,36.407,2.042,85.606,31.204,1020.930,107.700,22.900,342.000,23.676,365.01,2,-9.00,9,-9.00,0.16,13.14,71.19,24.87,228.44
AOML_Explorer,Ex0545E,318.222,14112005,5:19:07,25.884,-77.761,374.61,-9.00,1020.40,1016.93,26.56,26.78,36.430,2.040,85.283,31.245,1020.404,106.900,22.700,339.000,24.191,366.51,2,-9.00,9,-9.00,0.19,14.08,66.51,25.85,228.36
AOML_Explorer,Ex0545E,318.223,14112005,5:21:40,25.879,-77.744,374.66,-9.00,1020.49,1016.79,26.47,26.96,36.488,2.012,84.971,31.242,1020.485,107.100,22.500,336.000,24.191,370.18,2,-9.00,9,-9.00,0.16,14.53,63.07,25.82,228.11
AOML_Explorer,Ex0545E,318.225,14112005,5:24:13,25.875,-77.728,375.69,-9.00,1020.26,1016.31,26.60,27.01,36.522,2.044,84.546,31.244,1020.263,107.200,22.500,337.000,25.220,369.91,2,-9.00,9,-9.00,0.16,15.42,64.91,25.8,228.27
AOML_Explorer,Ex0545E,318.227,14112005,5:26:46,25.870,-77.711,377.02,-9.00,1020.24,1016.81,26.71,27.02,36.527,2.031,84.674,31.242,1020.237,107.200,22.500,337.000,25.735,369.83,2,-9.00,9,-9.00,0.16,15.90,65.53,25.84,228.23
AOML_Explorer,Ex0545E,318.229,14112005,5:29:19,25.865,-77.694,378.02,-9.00,1020.42,1016.21,26.75,27.03,36.528,2.035,84.918,31.240,1020.421,107.300,22.500,338.000,24.706,370.46,2,-9.00,9,-9.00,0.19,14.77,66.20,25.89,228.14
AOML_Explorer,Ex0545E,318.230,14112005,5:31:52,25.861,-77.677,378.79,-9.00,1020.32,1016.48,26.76,27.02,36.527,2.030,84.467,31.239,1020.324,106.800,22.500,347.000,25.220,370.96,2,-9.00,9,-9.00,0.17,14.28,82.04,25.83,228.14
AOML_Explorer,Ex0545E,318.232,14112005,5:34:25,25.856,-77.661,379.06,-9.00,1020.52,1016.35,26.76,27.02,36.531,2.041,84.597,31.235,1020.525,107.500,22.500,341.000,25.735,371.18,2,-9.00,9,-9.00,0.17,15.40,72.13,25.79,228.05
AOML_Explorer,Ex0545E,318.234,14112005,5:36:58,25.852,-77.644,379.27,-9.00,1020.33,1016.77,26.76,27.02,36.526,2.032,84.429,31.235,1020.329,107.200,22.500,340.000,24.706,371.33,2,-9.00,9,-9.00,0.17,14.55,68.93,25.83,228.03
AOML_Explorer,Ex0545E,318.236,14112005,5:39:31,25.847,-77.627,379.40,-9.00,1020.31,1016.20,26.76,27.01,36.531,2.050,84.640,31.229,1020.308,107.400,22.600,341.000,25.735,371.43,2,-9.00,9,-9.00,0.18,15.39,71.55,25.73,227.97
AOML_Explorer,Ex0545E,318.238,14112005,5:42:04,25.842,-77.610,379.53,-9.00,1020.36,1016.38,26.76,26.91,36.539,2.060,84.560,31.229,1020.363,107.400,22.600,344.000,25.735,370.15,2,-9.00,9,-9.00,0.15,15.10,76.50,25.76,228.24
AOML_Explorer,Ex0545E,318.239,14112005,5:44:37,25.837,-77.594,379.69,-9.00,1020.29,1016.31,26.74,26.83,36.512,2.025,84.387,31.227,1020.289,109.300,22.600,337.000,25.220,369.42,2,-9.00,9,-9.00,0.13,15.45,66.08,25.75,228.74
AOML_Explorer,Ex0545E,318.241,14112005,5:47:10,25.832,-77.577,379.04,-9.00,1020.40,1016.81,26.64,26.80,36.531,2.040,85.249,31.224,1020.403,108.200,22.600,339.000,23.676,369.81,2,-9.00,9,-9.00,0.10,13.64,67.13,25.89,229.23
AOML_Explorer,Ex0545E,318.243,14112005,5:49:43,25.827,-77.560,377.81,-9.00,1020.37,1016.52,26.57,26.81,36.529,2.053,85.366,31.225,1020.373,108.200,22.500,344.000,25.220,369.79,2,-9.00,9,-9.00,0.13,14.57,77.30,25.85,229.93
AOML_Explorer,Ex0545E,318.245,14112005,5:52:16,25.822,-77.544,375.15,-9.00,1020.21,1016.35,26.57,26.78,36.498,2.057,85.001,31.227,1020.213,108.300,22.400,340.000,25.220,366.83,2,-9.00,9,-9.00,0.15,15.09,70.58,25.84,229.57
AOML_Explorer,Ex0545E,318.246,14112005,5:54:49,25.817,-77.527,373.82,-9.00,1020.32,1016.40,26.56,26.81,36.504,2.037,84.758,31.228,1020.318,108.600,22.500,341.000,24.191,366.09,2,-9.00,9,-9.00,0.14,13.91,71.63,25.85,229.41
AOML_Explorer,Ex0545E,318.248,14112005,5:57:22,25.812,-77.510,374.50,-9.00,1020.28,1016.58,26.55,26.83,36.515,2.038,85.153,31.226,1020.283,108.400,22.400,335.000,25.735,367.08,2,-9.00,9,-9.00,0.14,16.27,63.27,25.82,229.50
AOML_Explorer,Ex0545E,318.250,14112005,5:59:55,25.807,-77.494,374.84,-9.00,1020.31,1016.55,26.58,26.82,36.525,2.052,84.782,31.230,1020.310,108.500,22.400,338.000,23.676,366.84,2,-9.00,9,-9.00,0.14,13.88,65.70,25.86,229.63
AOML_Explorer,Ex0545E,318.262,14112005,6:16:34,25.775,-77.387,373.81,-9.00,1020.13,1016.14,26.61,26.84,36.529,2.031,84.764,31.280,1020.127,108.600,22.200,339.000,24.191,365.60,2,-9.00,9,-9.00,0.13,14.33,68.19,26,229.67
AOML_Explorer,Ex0545E,318.263,14112005,6:19:07,25.770,-77.370,374.53,-9.00,1020.06,1016.58,26.61,26.82,36.520,2.028,85.232,31.281,1020.059,108.800,22.200,341.000,23.676,366.07,2,-9.00,9,-9.00,0.14,13.57,71.22,26.04,229.75
AOML_Explorer,Ex0545E,318.265,14112005,6:21:40,25.765,-77.354,374.96,-9.00,1020.07,1016.22,26.59,26.78,36.530,2.029,85.491,31.283,1020.068,106.100,22.100,339.000,24.191,366.22,2,-9.00,9,-9.00,0.14,14.43,65.14,25.97,229.59
AOML_Explorer,Ex0545E,318.267,14112005,6:24:13,25.761,-77.337,375.37,-9.00,1020.12,1016.46,26.57,26.76,36.522,2.039,85.232,31.283,1020.117,100.100,22.100,341.000,24.191,366.61,2,-9.00,9,-9.00,0.13,14.10,63.47,25.99,229.77
AOML_Explorer,Ex0545E,318.269,14112005,6:26:46,25.759,-77.320,375.49,-9.00,1020.11,1016.58,26.54,26.79,36.514,2.063,85.702,31.285,1020.108,95.600,22.100,350.000,23.676,367.58,2,-9.00,9,-9.00,0.12,12.66,75.62,25.94,229.92
AOML_Explorer,Ex0545E,318.270,14112005,6:29:19,25.758,-77.303,374.90,-9.00,1020.03,1016.73,26.51,26.75,36.542,2.075,85.896,31.285,1020.032,95.800,22.300,344.000,22.647,366.86,2,-9.00,9,-9.00,0.12,12.12,63.15,25.96,229.67
AOML_Explorer,Ex0545E,318.272,14112005,6:31:52,25.756,-77.285,374.59,-9.00,1020.12,1016.13,26.55,26.74,36.520,2.063,85.172,31.284,1020.117,95.900,22.300,350.000,25.220,365.86,2,-9.00,9,-9.00,0.11,14.11,76.23,25.93,230.07
AOML_Explorer,Ex0545E,318.274,14112005,6:34:25,25.755,-77.268,374.73,-9.00,1020.07,1016.44,26.51,26.76,36.528,2.052,85.353,31.283,1020.066,95.900,22.300,353.000,23.162,366.92,2,-9.00,9,-9.00,0.11,11.89,80.67,26.03,230.10
AOML_Explorer,Ex0545E,318.276,14112005,6:36:58,25.753,-77.250,373.73,-9.00,1019.95,1016.58,26.52,26.78,36.543,2.010,84.548,31.283,1019.953,95.500,22.300,348.000,23.162,366.01,2,-9.00,9,-9.00,0.10,12.16,71.24,26.08,230.22
AOML_Explorer,Ex0545E,318.277,14112005,6:39:31,25.752,-77.233,373.09,-9.00,1020.01,1016.12,26.54,26.83,36.530,2.035,85.270,31.283,1020.013,95.900,22.300,351.000,25.220,365.70,2,-9.00,9,-9.00,0.10,14.06,77.80,26.07,230.48
AOML_Explorer,Ex0545E,318.279,14112005,6:42:04,25.750,-77.216,372.25,-9.00,1019.77,1016.57,26.53,26.86,36.613,2.034,85.118,31.282,1019.769,95.400,22.200,356.000,24.191,365.30,2,-9.00,9,-9.00,0.10,12.79,86.14,26.14,230.86
AOML_Explorer,Ex0545E,318.281,14112005,6:44:37,25.749,-77.199,370.66,-9.00,1019.78,1016.16,26.60,26.86,36.617,2.064,85.184,31.283,1019.778,95.500,22.200,350.000,23.676,362.80,2,-9.00,9,-9.00,0.09,12.65,74.33,26.15,230.79
AOML_Explorer,Ex0545E,318.283,14112005,6:47:10,25.748,-77.181,369.28,-9.00,1019.87,1016.57,26.61,26.86,36.612,2.033,85.560,31.282,1019.869,93.400,22.300,355.000,22.647,361.32,2,-9.00,9,-9.00,0.10,11.27,82.48,26.12,230.86
AOML_Explorer,Ex0545E,318.285,14112005,6:49:43,25.747,-77.164,368.71,-9.00,1019.76,1016.37,26.61,26.86,36.615,2.047,85.563,31.282,1019.763,94.100,22.300,354.000,23.676,360.69,2,-9.00,9,-9.00,0.10,12.37,80.19,26.07,230.79
AOML_Explorer,Ex0545E,318.286,14112005,6:52:16,25.746,-77.146,368.63,-9.00,1019.88,1016.50,26.62,26.86,36.614,2.035,85.926,31.282,1019.877,94.200,22.300,351.000,21.617,360.62,2,-9.00,9,-9.00,0.10,10.52,72.92,26.06,230.88
AOML_Explorer,Ex0545E,318.288,14112005,6:54:49,25.745,-77.129,368.58,-9.00,1019.76,1016.48,26.61,26.85,36.617,2.037,85.217,31.277,1019.758,94.200,22.400,353.000,22.132,360.48,2,-9.00,9,-9.00,0.09,10.86,76.72,25.99,231.02
AOML_Explorer,Ex0545E,318.290,14112005,6:57:22,25.743,-77.112,368.38,-9.00,1019.75,1016.11,26.61,26.84,36.615,2.046,85.618,31.273,1019.752,94.500,22.500,355.000,23.676,360.23,2,-9.00,9,-9.00,0.08,12.28,82.36,26.08,230.92
AOML_Explorer,Ex0545E,318.292,14112005,6:59:55,25.742,-77.094,368.33,-9.00,1019.72,1016.47,26.61,26.84,36.611,2.017,85.338,31.270,1019.718,96.600,22.600,355.000,22.647,360.16,2,-9.00,9,-9.00,0.10,11.18,82.83,26.01,230.96
AOML_Explorer,Ex0545E,318.305,14112005,7:19:07,25.728,-76.962,367.46,-9.00,1019.61,1015.94,26.64,26.90,36.623,2.056,84.796,31.313,1019.613,97.400,22.700,350.000,22.647,359.64,2,-9.00,9,-9.00,0.08,11.47,73.43,25.99,230.87
AOML_Explorer,Ex0545E,318.307,14112005,7:21:40,25.727,-76.944,367.78,-9.00,1019.54,1015.82,26.61,26.91,36.632,2.007,85.327,31.315,1019.537,96.700,22.900,348.000,22.647,360.34,2,-9.00,9,-9.00,0.09,11.52,69.40,26.01,230.79
AOML_Explorer,Ex0545E,318.308,14112005,7:24:13,25.725,-76.926,367.91,-9.00,1019.52,1016.24,26.64,26.92,36.626,2.043,85.328,31.314,1019.524,96.400,22.800,354.000,23.676,360.33,2,-9.00,9,-9.00,0.10,12.12,82.21,26.06,230.93
AOML_Explorer,Ex0545E,318.310,14112005,7:26:46,25.723,-76.908,368.06,-9.00,1019.51,1016.17,26.66,26.92,36.630,2.021,85.589,31.315,1019.509,97.500,22.700,354.000,21.617,360.10,2,-9.00,9,-9.00,0.07,10.10,81.25,26.04,230.86
AOML_Explorer,Ex0545E,318.312,14112005,7:29:19,25.721,-76.891,368.16,-9.00,1019.54,1016.29,26.68,26.93,36.629,2.054,85.409,31.313,1019.540,96.200,22.900,1.000,21.103,360.20,2,-9.00,9,-9.00,0.08,9.37,95.99,25.96,230.90